Terminal Aerodrome Forecast
Issued by NWS

Home | Current Version | Previous Version | Text Only | Print | Product List | Glossary On
Versions: 1 2 3 4 5 6 7 8 9 10 11 12 13 14 15
690
FTUS43 KILX 281138
TAFDEC
TAF
KDEC 281138Z 2812/0112 18011KT P6SM BKN015
     FM281500 19016G26KT P6SM BKN015
     FM010200 22013G27KT 6SM -SHRA VCTS OVC035CB WS009/22045KT
     FM011100 25011G20KT P6SM BKN040=

USA.gov is the U.S. government's official web portal to all federal, state and local government web resources and services.